www.pogodaiklimat.ru

Погода и климат >> Архив погоды >> Антарктида >> Base Marambio


ПОГОДА в Base Marambio

  • Прогноз погоды в Base Marambio
  • Монитор погоды в Base Marambio
  • Климат города

АРХИВ ПОГОДЫ в Base Marambio

Время (UTC), дата Ветер
(напр.,м/с)
 
Видим.   Явления Облачность Т
(С)
Тd
(С)
f
(%)
Тe
(С)
Тes
(С)
Комфортность P
(гПа)
Po
(гПа)
Тmin
(С)
Tmax
(С)
R
(мм)
R24
(мм)
S
(см)
06 19.06 СЗ 4 15 км 5/0
[Ac As]
-22.4 -24.8 81 -31 -31 опасность
обморожения
979.6 953.6
09 19.06 З 5 15 км 3/0
[Ci fib]
-22.5 -25.0 80 -33 -33 опасность
обморожения
980.0 953.8
12 19.06 В 1 15 км ясно -21.6 -24.0 81 -25 -25 979.6 953.6 -24.9 -21.6
15 19.06 С 4 15 км 3/0
[Cs]
-21.8 -24.2 81 -31 -31 опасность
обморожения
977.2 951.2
18 19.06 С 4 800 м туман местами 6/0
[Cs]
-19.0 -21.1 83 -28 -28 972.9 947.2
21 19.06 С 1 500 м туман местами 8/0
[Ac As Cs]
-15.1 -16.9 86 -18 -18 969.2 943.8
00 20.06 В 3 300 м туман местами 9/0
[Ac As]
-15.5 -17.3 86 -22 -22 966.3 941.0 -21.7 -14.3
03 20.06 В 10 600 м слабый снег {туман} 10/10 90 м
[Frnb]
-14.3 -16.0 87 -26 -26 965.1 939.8
06 20.06 Ю 14 300 м снег {туман} 10/10 300 м
[Frnb]
-19.9 -22.1 83 -35 -35 опасность
обморожения
968.6 943.2
09 20.06 Ю 10 2000 м позёмок {снег, метель} 10/5 300 м
[Frnb Ac As]
-21.1 -23.4 82 -35 -35 опасность
обморожения
970.1 944.8
12 20.06 Ю 11 1500 м позёмок {снег, метель} 10/0 2000 м
[Ac As]
-22.9 -25.4 80 -38 -38 опасность
обморожения
971.5 946.0 -22.9 -14.0
15 20.06 Ю 13 800 м сильная метель 6/0
[Ac As Cs]
-26.1 -28.8 78 -44 -44 опасность
обморожения
972.9 947.3
18 20.06 Ю 11 15 км сильный позёмок {метель} 5/0
[Cs]
-26.3 -29.1 77 -43 -43 опасность
обморожения
973.8 947.8
21 20.06 Ю 12 3000 м сильный позёмок {метель} 10/0 1500 м
[Ac As]
-25.5 -28.2 78 -42 -42 опасность
обморожения
975.5 949.4
00 21.06 Ю 5 2000 м слабый снег {метель} 10/4 450 м
[St As op]
-25.7 -28.4 78 -37 -37 опасность
обморожения
977.3 951.0 -27.2 -22.9
03 21.06 Ю 3 2000 м слабый снег 10/10 300 м
[St]
-25.0 -27.7 78 -34 -34 опасность
обморожения
977.9 951.6
06 21.06 Ю 2 4000 м в посл. час снег 10/10 360 м
[St]
-25.1 -27.8 78 -32 -32 опасность
обморожения
979.2 952.8
09 21.06 З 4 4000 м дымка 10/3 1050 м
[Sc Ac As]
-24.2 -26.8 79 -34 -34 опасность
обморожения
980.2 953.8
12 21.06 Ю 6 1500 м слабый снег туман 10/4 450 м
[Frnb As op]
-25.5 -28.2 78 -38 -38 опасность
обморожения
981.7 955.3 -27.1 -23.8
15 21.06 Ю 9 300 м туман {снег} 9/4 150 м
[Frnb Ac As]
-25.8 -28.5 78 -40 -40 опасность
обморожения
982.7 956.2
18 21.06 Ю 10 500 м туман {снег} 9/3 150 м
[Frnb Ac As Cs]
-27.3 -30.1 77 -43 -43 опасность
обморожения
982.8 956.2
21 21.06 Ю 9 500 м туман {метель} 9/3 150 м
[Frnb Ac As Cs]
-26.7 -29.5 77 -42 -42 опасность
обморожения
984.1 957.6
00 22.06 ЮВ 6 2000 м слабый снег {туман} 10/5 360 м
[Frnb As op]
-26.4 -29.2 77 -39 -39 опасность
обморожения
986.0 959.4 -27.6 -25.0
06 22.06 ЮВ 10 15 км в посл. час туман {снег} 4/0
[Cs]
-27.4 -30.2 77 -44 -44 опасность
обморожения
989.8 963.0
09 22.06 Ю 5 15 км 10/0 1200 м
[Ac As]
-28.1 -31.0 76 -40 -40 опасность
обморожения
992.1 965.2
12 22.06 Ю 9 200 м слабый снег {туман} 10/5 300 м
[St As op]
-27.3 -30.1 77 -43 -43 опасность
обморожения
993.7 966.8 -29.2 -26.2
15 22.06 Ю 10 100 м туман {снег} 10/4 360 м
[St Ac As]
-27.4 -30.2 77 -44 -44 опасность
обморожения
995.3 968.4
18 22.06 Ю 9 200 м туман {снег} 10/6 300 м
[Frnb Ac As]
-27.1 -29.9 77 -42 -42 опасность
обморожения
996.1 969.0
21 22.06 Ю 10 500 м туман {метель} 10/0 2000 м
[Ac As]
-26.4 -29.2 77 -42 -42 опасность
обморожения
995.7 968.6
00 23.06 Ю 11 600 м туман {метель} 10/3 120 м
[Frnb Ac As]
-26.1 -28.8 78 -42 -42 опасность
обморожения
994.9 968.0 -28.1 -25.8
03 23.06 Ю 15 200 м туман {метель} 10/3 120 м
[Frnb Ac As]
-28.8 -31.7 76 -48 -48 опасность
обморожения
993.6 966.6
06 23.06 Ю 16 100 м туман {метель} 10/0
[Ac As]
-27.2 -30.0 77 -46 -46 опасность
обморожения
992.5 965.6
09 23.06 Ю 20 100 м туман {метель} 10/0
[Ac As]
-25.2 -27.9 78 -45 -45 опасность
обморожения
991.1 964.4
12 23.06 Ю 21 <100 м слабый снег {туман} 10/10 210 м
[St]
-23.0 -25.5 80 -42 -42 опасность
обморожения
989.4 962.9 -28.8 -23.0
15 23.06 Ю 20 <100 м слабый снег {туман} 10/10 240 м
[St]
-21.6 -24.0 81 -40 -40 опасность
обморожения
989.7 963.0
18 23.06 Ю 20 <100 м слабый снег {туман} 10/10 50 м
[St]
-20.8 -23.1 82 -39 -39 опасность
обморожения
989.9 963.4
21 23.06 Ю 16 100 м слабый снег {туман} 10/10 60 м
[St]
-19.8 -22.0 83 -36 -36 опасность
обморожения
991.1 964.8
00 24.06 Ю 14 100 м туман {снег} туман 10/10 240 м
[St]
-19.8 -22.0 83 -35 -35 опасность
обморожения
992.2 965.8 -23.1 -18.9
03 24.06 Ю 15 3000 м позёмок {туман, метель} 10/10 900 м
[Sc]
-19.4 -21.6 83 -35 -35 опасность
обморожения
992.8 966.6
06 24.06 Ю 10 8000 м дымка {туман, метель} ясно -19.5 -21.7 83 -33 -33 опасность
обморожения
993.4 967.2
09 24.06 СЗ 1 8000 м дымка ясно -19.2 -21.4 83 -22 -22 993.9 967.8
12 24.06 З 4 15 км 1/0
[Ci fib]
-17.9 -19.9 84 -26 -26 993.8 967.8 -20.1 -17.9
15 24.06 СЗ 8 15 км 3/0
[Ci fib]
-16.4 -18.3 85 -28 -28 992.7 966.8
18 24.06 СЗ 9 15 км ясно -14.2 -17.7 75 -26 -26 990.9 965.0
21 24.06 СЗ 5 15 км ясно -12.0 -18.1 60 -20 -20 990.3 964.6
00 25.06 СЗ 5 15 км ясно -9.3 -14.9 64 -17 -17 990.0 964.6 -18.0 -9.3
03 25.06 СЗ 5 15 км ясно -7.9 -20.1 37 -15 -15 988.3 963.0
06 25.06 З 8 15 км 4/0
[Cs]
-5.4 -15.8 44 -14 -14 986.6 961.6
09 25.06 З 8 15 км 9/0
[Ac As Cs]
-4.3 -10.2 63 -12 -12 984.8 960.0
12 25.06 З 4 15 км 9/0
[Ac As]
-3.8 -7.4 76 -10 -10 983.4 958.8 -9.2 -2.5
15 25.06 СЗ 2 15 км 9/0
[Ac As Cs]
-0.8 -8.4 56 -4 -4 983.5 959.0
18 25.06 З 8 15 км 8/0
[Ac As Cs]
-2.6 -6.2 76 -11 -11 981.6 957.3
21 25.06 З 20 900 м сильная метель 6/0
[Ac As Cs]
-2.2 -4.4 85 -14 -14 978.7 954.5
00 26.06 СЗ 34 200 м сильная метель 9/0
[Ac As Cs]
-2.9 -3.3 97 -17 -17 970.7 946.6 -3.8 -0.7

 

Местоположение метеостанции Base Marambio (Антарктида): широта -64.23 долгота -56.71 высота над уровнем моря 198 м.

В архиве по умолчанию представлена погода в Base Marambio за последнюю неделю. Архивные данные за месяц целиком и за предыдущие месяцы, начиная с января 2011 года, Вы можете получить, выбрав интересующий диапазон дат из раскрывающегося списка и нажав кнопку "Ввод!".

Внимание! Время в таблицах - всемирное. Для получения местного времени необходимо прибавить поправку, которая в Base Marambio равна 0 ч.

Смотрите также архив погоды в соседних городах и на ближайших метеорологических станциях:

Погода в Base Esperanza (Антарктида) (93 км)
Погода в Bernardo o`Higgins (Антарктида) (118 км)
Погода в Base Jubany (Антарктида) (242 км)
Погода в Base Arturo Prat (Антарктида) (243 км)
Погода в King Sejong (Антарктида) (247 км)
Погода в Great Wall (Антарктида) (251 км)
Погода в Dinamet-Uruguay (Антарктида) (252 км)
Погода в Bellingshausen (Антарктида) (252 км)
Погода в Juan Carlos I (Антарктида) (253 км)
Погода в Frei Chi-Base (Антарктида) (255 км)

Пояснения к столбцам:

Ветер - указаны скорость ветра в м/с - средняя за 10 мин, порывы в срок и между сроками (в фигурных скобках) и направление, откуда дует ветер: С - северный, СВ - северо-восточный, В - восточный, ЮВ - юго-восточный, Ю - южный, ЮЗ - юго-западный, З - западный, СЗ - северо-западный.
Видимость - горизонтальная дальность видимости в метрах или километрах. При видимости от 1 до 10 км при отсутствии осадков обычно наблюдается дымка, при ухудшении видимости до 1 км и менее - туман. В сухую погоду видимость может ухудшаться дымом, пылью или мглою.
Явления - указаны атмосферные явления, наблюдавшиеся в срок или в последний час перед сроком; фигурными скобками обозначены явления, наблюдавшиеся между сроками (за 1-3 часа до срока); квадратными скобками обозначены град или гололедные отложения с указанием их диаметра в мм.
Облачность - указаны через наклонную черту общая и нижняя облачность в баллах и высота нижней границы облаков в метрах; квадратными скобками обозначены формы облаков: Ci - перистые, Cs - перисто-слоистые, Cc - перисто-кучевые, Ac - высококучевые, As - высокослоистые, Sc - слоисто-кучевые, Ns - слоисто-дождевые, Cu - кучевые, Cb - кучево-дождевые. Подробнее классификацию облаков см. в Атласе облаков (PDF).
T - Температура воздуха - температура, измеренная на высоте 2 м над землей.
Td - Температура точки росы - температура, при понижении до которой содержащийся в воздухе водяной пар достигнет насыщения.
f - Относительная влажность воздуха - влажноcть воздуха, измеренная на высоте 2 м над землей.
Te - Эффективная температура - температура, которую ощущает одетый по сезону человек в тени. Характеристика душности погоды. При расчете учитывается влияние влажности воздуха и скорости ветра на теплоощущения человека.
Tes - Эффективная температура на солнце - температура, которую ощущает человек, с поправкой на солнечный нагрев. Характеристика знойности погоды. Зависит от высоты солнца над горизонтом, облачности и скорости ветра. Ночью, в пасмурную погоду, а также при ветре 12 м/с и более поправка равна нулю.
P - Атмосферное давление - приведенное к уровню моря атмосферное давление.
Po - Атмосферное давление - измеренное на уровне метеостанции атмосферное давление.
Tmin - Минимальная температура - минимум температуры воздуха на высоте 2 м над землей.
Tmax - Максимальная температура - максимум температуры воздуха на высоте 2 м над землей.
R - Количество осадков - Количество выпавших осадков за период времени, мм. При наведении курсора мыши на число - период времени, за который выпало указанное количество осадков.
R24 - Количество осадков - Количество выпавших осадков за 24 часа, мм.
S - Снежный покров - Высота снежного покрова, см. При наведении курсора мыши на число - состояние снежного покрова и степень покрытия местности в баллах.